Location: Northam
(31.6525°S, 116.6655°E)
Time: 10:45:00
(UTC+08:00)

STRAND 1 - Visible Passes

Search period start: 26 July 2021 00:00
Search period end: 05 August 2021 00:00
Orbit: 767 x 781 km, 98.4° (Epoch: 25 July)

Date Brightness Start Highest point End Pass type
(mag) Time Alt. Az. Time Alt. Az. Time Alt. Az.
26 Jul ? 18:00:56 10° NE 18:05:23 31° ESE 18:09:53 10° S visible
26 Jul ? 19:40:24 10° NNW 19:44:29 24° W 19:48:37 10° SW visible
27 Jul ? 06:17:19 10° SE 06:20:31 16° E 06:23:40 10° NE visible
27 Jul ? 19:05:18 10° N 19:10:17 55° W 19:15:22 10° SSW visible
28 Jul ? 18:31:12 10° NNE 18:36:15 65° ESE 18:41:23 10° S visible
28 Jul ? 20:14:38 10° WNW 20:15:47 11° W 20:16:56 10° W visible
29 Jul ? 17:58:01 10° NE 18:02:23 29° ESE 18:06:47 10° SSE visible
29 Jul ? 19:37:15 10° NNW 19:41:27 26° W 19:45:43 10° SW visible
30 Jul ? 06:14:31 10° ESE 06:17:28 15° E 06:20:23 10° NE visible
30 Jul ? 19:02:14 10° N 19:07:15 59° WNW 19:12:23 10° SSW visible
31 Jul ? 18:28:12 10° NNE 18:33:14 61° ESE 18:38:21 10° S visible
31 Jul ? 20:10:58 10° WNW 20:12:44 12° W 20:14:31 10° WSW visible
01 Aug ? 17:55:07 10° NE 17:59:23 27° ESE 18:03:42 10° SSE visible
01 Aug ? 19:34:05 10° NNW 19:38:25 28° W 19:42:48 10° SW visible
02 Aug ? 06:11:46 10° ESE 06:14:25 14° E 06:17:04 10° NE visible
02 Aug ? 18:59:11 10° N 19:04:14 64° W 19:09:24 10° SSW visible
03 Aug ? 18:25:14 10° NNE 18:30:13 56° ESE 18:35:19 10° S visible
03 Aug ? 20:07:28 10° WNW 20:09:41 13° W 20:11:55 10° WSW visible
04 Aug ? 19:30:56 10° NNW 19:35:22 30° W 19:39:53 10° SW visible
